Wetbulb
66.47 65.30 64.51 62.25 54.26 53.39 52.66 55.70 60.17 58.44 57.55 59.51 60.19 59.16 60.15 63.44 62.24 62.02 74.36 75.41 74.56 77.32 77.88 78.29 78.09 78.30 78.12 77.69 77.46 77.11 76.63 76.83 76.63 76.61 76.86 76.63 76.83 77.18 77.40 77.26 77.11 76.65 75.48 74.79 74.19 73.63 73.34 73.44 73.86
63.20 63.03 62.77 59.19 52.67 49.82 51.90 57.41 56.43 59.02 59.53 60.17 59.85 59.58 59.85 61.50 68.59 70.83 72.75 74.27 74.65 77.64 77.99 77.74 77.81 78.27 78.32 77.87 77.39 76.83 76.83 76.81 76.60 76.58 76.66 76.71 76.73 77.01 77.11 77.01 76.78 75.73 74.72 73.82 73.02 73.13 73.32 73.48 74.03
61.70 62.53 57.94 55.60 53.11 50.51 51.94 56.82 56.32 58.40 59.30 59.30 58.58 62.48 62.98 64.86 69.21 71.98 75.85 75.02 75.12 77.32 77.54 78.18 77.79 78.01 78.37 78.12 77.21 76.78 76.65 76.73 76.76 76.71 76.73 76.73 76.75 76.75 76.70 76.73 76.51 75.21 73.71 72.97 72.81 73.01 73.32 73.77 73.81
60.02 59.49 58.36 52.73 51.80 54.70 55.28 54.96 57.27 56.88 58.50 59.55 59.26 58.78 65.03 72.91 72.32 73.82 75.82 75.18 75.36 76.44 76.79 77.19 77.58 77.81 77.91 78.17 77.71 77.03 76.86 76.81 76.78 76.68 76.71 76.70 76.63 76.64 76.62 76.55 75.98 74.96 73.80 72.91 72.58 72.69 73.24 73.79 73.86
59.69 57.00 52.33 51.64 52.54 55.36 57.09 55.99 56.60 56.39 57.16 58.19 58.69 59.25 64.40 71.47 74.82 74.63 73.88 74.56 75.09 75.72 76.67 78.03 77.27 77.43 77.61 77.84 77.61 77.31 76.83 76.73 76.58 76.73 76.78 76.73 76.54 76.34 76.44 76.18 75.38 74.71 73.89 72.92 72.05 71.90 72.34 72.68 72.11
54.69 56.11 49.76 49.77 52.31 54.54 57.20 57.76 57.11 56.62 57.35 57.71 57.76 58.28 62.59 66.08 73.65 74.01 74.22 74.70 74.80 74.93 76.95 78.28 77.06 77.22 77.20 77.16 77.11 77.10 76.64 76.59 76.62 76.55 76.45 76.57 76.39 76.26 76.09 75.50 75.13 74.61 73.93 73.12 71.71 71.21 71.20 71.06 70.38
52.61 52.96 50.09 51.21 51.88 53.00 56.15 58.29 56.86 56.57 56.86 56.60 59.32 56.89 62.00 62.06 66.92 75.10 74.62 74.74 74.93 75.10 76.17 77.39 76.74 77.39 77.12 76.74 76.69 76.46 76.40 76.33 76.31 76.10 76.00 76.03 76.11 75.88 75.54 75.07 74.85 74.45 73.94 73.11 72.20 71.28 70.40 69.82 69.02
53.23 52.97 50.58 50.78 49.80 51.51 57.22 57.18 58.36 57.06 56.19 60.41 59.02 56.01 58.63 61.48 66.03 73.17 75.18 74.74 74.15 74.92 75.28 76.30 76.27 76.17 76.87 77.52 76.53 76.30 76.25 76.12 76.02 75.92 75.89 75.80 75.65 75.43 75.09 74.36 74.45 74.28 73.73 72.97 72.04 71.21 70.39 69.69 69.65
55.44 48.45 46.69 48.93 49.26 52.57 56.78 54.46 56.94 58.69 57.16 57.56 58.41 58.69 60.76 61.65 64.05 69.85 73.38 73.70 73.43 73.55 74.57 75.61 75.29 75.30 75.30 75.22 76.87 76.12 76.18 75.97 75.69 75.90 75.70 74.75 74.65 74.89 74.65 72.95 73.90 73.86 73.11 72.30 71.68 71.07 70.66 70.44 70.32
51.96 48.23 48.49 51.33 51.67 51.86 54.04 53.26 53.71 53.56 56.45 56.05 57.13 59.78 60.54 61.13 61.76 64.47 69.91 71.47 71.95 72.50 73.32 74.94 75.67 75.23 74.77 73.70 76.00 75.97 76.44 76.66 76.54 76.14 76.12 75.19 74.80 75.28 73.15 72.73 74.05 73.03 72.32 71.56 71.34 71.06 70.43 69.54 67.87
51.57 48.39 51.19 51.97 52.58 52.94 52.34 52.69 54.00 52.01 51.90 55.42 56.07 58.29 59.35 59.76 60.93 60.78 61.98 69.29 71.38 72.46 73.32 74.31 76.69 77.72 75.88 74.26 74.86 73.81 74.15 74.54 75.39 75.63 76.41 76.03 74.64 74.96 71.55 72.11 71.67 71.61 71.67 69.47 69.72 69.39 68.50 68.42 68.71
48.83 51.43 51.72 52.59 52.93 52.21 50.79 52.11 51.12 52.02 52.79 54.43 55.56 56.91 57.12 57.69 58.39 59.14 60.45 61.99 69.13 72.50 73.25 74.24 75.50 77.11 77.90 74.71 74.38 74.70 73.77 74.21 73.44 73.33 76.23 75.75 74.43 75.42 73.40 71.07 71.36 72.45 69.68 70.20 69.93 68.19 71.24 71.39 70.49
49.66 50.82 51.41 52.36 52.46 52.05 51.89 50.05 49.93 51.02 53.95 54.74 54.84 55.15 55.07 56.34 57.81 59.72 61.42 62.27 64.24 70.57 73.46 73.74 75.53 77.11 77.56 78.57 75.28 75.29 74.81 74.36 74.00 73.37 75.31 74.65 73.72 75.00 73.44 73.41 71.64 70.85 70.34 69.79 71.14 70.47 71.48 70.41 72.23
51.74 50.97 50.78 51.35 51.23 51.89 50.22 49.91 50.14 51.35 54.31 53.78 54.10 54.56 55.40 56.07 57.24 58.77 60.94 61.71 63.82 66.33 71.96 74.13 74.68 77.79 77.53 77.08 77.82 76.36 76.29 75.60 74.79 74.01 74.07 75.78 74.79 75.59 72.68 73.45 71.64 71.16 71.22 70.98 71.12 70.96 70.31 70.36 72.79
50.77 48.44 49.76 50.39 50.88 50.26 52.01 48.88 48.67 52.22 53.59 52.95 53.43 54.16 55.60 56.44 57.36 57.71 60.65 62.36 63.67 65.17 68.08 75.82 76.57 77.48 78.34 78.05 77.46 76.36 75.51 75.30 74.46 74.25 74.09 74.29 75.87 76.03 73.85 72.77 72.58 72.27 73.15 76.16 73.98 73.76 71.67 70.38 71.65
48.15 48.51 45.18 50.12 50.64 50.42 49.33 44.94 50.70 52.81 51.96 51.26 52.43 53.56 54.24 55.62 56.88 58.59 60.09 62.14 65.03 66.74 69.93 74.49 74.96 76.52 78.26 77.94 77.17 76.17 75.73 75.38 75.52 74.55 74.50 74.76 74.60 75.57 74.59 72.22 72.91 73.12 73.42 72.45 70.79 70.32 69.71 69.07 70.53
47.40 43.47 45.30 46.96 50.51 49.38 48.18 46.16 50.16 52.46 52.29 51.21 52.17 52.73 53.68 54.73 57.16 59.34 60.13 61.68 63.59 65.24 69.03 72.73 75.48 74.99 78.10 77.19 77.11 76.97 77.49 76.23 75.63 75.86 74.78 74.60 74.92 74.10 74.43 72.72 72.78 75.35 71.92 72.03 70.98 70.80 70.59 70.00 71.39
43.69 43.84 44.81 44.35 47.84 48.62 47.12 46.97 49.51 51.48 51.63 51.92 52.52 52.77 52.72 53.95 55.37 58.11 59.70 61.35 62.53 64.84 69.08 73.67 76.38 76.88 78.99 77.40 76.38 75.57 75.44 75.72 75.66 75.13 74.53 75.61 75.00 74.02 74.37 73.15 73.54 74.15 72.27 71.58 71.51 72.26 71.38 70.47 69.97
46.24 45.31 44.40 46.67 48.40 47.41 47.23 47.69 49.41 51.45 51.90 51.90 52.67 53.39 53.85 54.26 56.18 58.00 59.23 60.42 61.47 65.49 69.04 71.24 74.98 79.01 77.25 75.77 75.37 74.45 74.40 75.29 75.56 76.00 76.80 77.12 75.98 75.11 73.70 73.12 73.88 74.18 72.67 72.62 73.77 73.02 72.46 70.45 71.58
46.19 44.38 44.45 47.13 48.73 48.09 47.56 47.34 50.42 51.81 52.18 53.03 53.38 53.69 54.04 55.04 55.91 57.11 59.56 61.86 63.81 66.33 68.48 69.86 72.21 77.04 78.19 76.48 76.15 75.58 75.31 75.36 75.52 75.65 76.75 75.14 76.29 75.37 72.83 72.49 73.53 73.68 72.71 74.37 74.44 73.03 70.47 70.70 71.03
45.73 44.51 45.01 45.09 47.80 48.84 47.36 45.86 48.28 51.59 52.96 53.71 53.79 54.55 54.71 54.90 55.36 56.67 57.53 59.42 60.35 62.72 65.52 67.01 70.07 72.32 77.46 77.32 76.93 76.30 75.98 76.43 74.65 75.68 75.64 76.46 76.16 75.62 76.26 75.62 75.25 75.24 74.11 71.97 72.51 73.41 71.28 67.54 70.57
43.14 47.51 46.41 45.04 44.36 41.28 48.80 40.16 47.38 49.96 50.80 52.13 52.92 54.06 54.52 55.08 56.05 56.76 57.47 58.78 59.96 60.94 63.58 66.50 69.01 70.93 70.80 77.74 75.17 75.41 73.46 72.94 74.47 74.47 75.02 75.92 75.52 75.05 75.85 75.89 75.68 76.49 74.52 73.52 72.48 74.65 73.43 72.01 68.19
45.02 48.49 46.96 46.86 45.25 45.06 45.20 43.03 46.40 49.82 48.31 50.46 52.27 53.26 54.10 54.87 55.57 55.89 57.01 58.20 59.96 60.89 61.52 64.59 68.18 69.91 71.85 71.30 75.86 74.70 74.56 73.62 74.06 73.88 74.43 75.14 75.81 75.62 75.18 75.59 76.54 76.18 74.92 74.89 75.12 74.97 74.42 72.54 70.56
48.87 47.32 47.23 47.51 45.87 39.89 44.62 44.20 44.56 46.79 47.73 49.20 51.46 52.80 53.54 54.19 55.21 56.81 58.55 59.57 59.74 60.66 61.10 62.99 67.14 68.38 69.71 70.84 70.82 74.37 74.04 73.50 72.37 73.38 72.91 73.57 73.47 73.31 75.32 75.12 75.48 76.21 75.45 75.35 74.28 75.15 74.34 72.59 72.00
48.09 45.64 40.14 38.98 39.23 38.73 46.10 42.85 44.56 48.03 49.09 50.11 50.53 51.73 53.73 55.56 56.19 56.84 57.08 58.12 59.40 60.01 60.77 61.42 62.35 65.39 67.33 68.25 70.21 71.45 74.27 75.35 73.61 74.21 73.71 73.40 73.70 73.98 74.01 75.06 74.96 75.18 75.58 75.23 74.84 75.32 74.48 73.09 72.04
46.52 45.26 39.16 32.02 34.87 38.75 44.81 39.14 42.90 48.48 51.01 51.58 51.94 52.24 53.13 54.02 54.96 55.47 56.36 56.76 58.07 59.43 60.43 61.04 61.41 62.31 64.59 66.16 68.22 71.31 73.25 73.10 73.83 74.88 73.76 73.68 73.16 74.77 76.34 75.37 74.82 75.62 75.48 75.29 76.45 76.25 75.40 73.88 72.36
44.52 42.46 46.54 40.94 41.89 37.04 39.95 43.33 47.17 48.98 50.11 51.30 50.19 50.94 51.65 52.30 53.18 54.80 56.04 56.47 57.28 57.53 59.34 60.34 61.20 61.55 63.15 64.17 66.50 70.47 72.26 73.60 72.85 74.05 74.89 74.28 74.51 74.85 75.95 75.65 75.73 74.79 75.70 76.40 76.63 74.60 73.60 74.65 74.14
46.34 47.46 40.10 41.59 32.20 31.59 37.83 39.01 39.83 44.63 45.78 47.63 48.89 49.45 51.00 52.04 52.49 53.50 53.73 54.90 56.52 58.05 58.63 59.82 60.74 61.14 62.62 64.25 64.78 66.62 72.12 73.35 74.02 74.75 74.12 74.20 75.12 75.89 74.38 75.98 76.01 75.70 75.59 75.01 75.13 74.37 74.29 73.49 72.61
44.13 42.95 43.20 42.50 40.07 32.80 32.04 36.72 46.69 45.78 47.16 47.28 48.34 49.89 51.16 52.12 52.76 53.32 53.82 54.91 55.30 57.06 57.48 58.44 58.95 60.24 61.06 63.10 64.36 65.61 69.96 71.81 72.79 72.58 73.21 74.43 74.42 75.55 72.86 73.77 74.85 73.77 74.05 74.32 74.01 74.04 72.81 72.18 72.75
46.24 43.68 42.99 37.82 36.45 39.08 37.20 37.07 48.57 48.22 48.40 48.81 49.14 50.15 51.76 52.70 53.35 54.02 54.02 54.64 54.81 54.08 55.34 56.53 57.87 58.83 60.72 61.65 63.44 64.65 68.38 71.44 71.98 72.16 71.30 71.24 69.78 69.88 72.27 72.30 72.33 71.37 71.42 73.40 71.98 71.05 70.96 70.08 70.35
MSLP
1009.61 1008.08 1007.04 1006.06 1004.93 1002.27 999.73 998.14 996.54 996.55 997.66 998.13 998.52 998.61 997.49 996.96 996.79 998.51 1000.55 1001.02 1001.05 1002.80 1004.66 1005.93 1006.47 1006.91 1007.63 1008.15 1008.68 1009.24 1009.76 1010.22 1010.59 1010.89 1011.23 1011.56 1011.87 1012.21 1012.52 1012.84 1013.16 1013.38 1013.68 1013.85 1014.02 1014.11 1014.21 1014.35 1014.46
1008.98 1007.78 1006.76 1005.03 1003.21 1000.39 998.53 997.38 997.01 997.47 998.06 998.97 998.81 998.70 998.44 997.70 998.10 999.18 1000.22 1001.75 1001.82 1003.48 1004.94 1005.67 1006.76 1007.16 1007.60 1008.26 1008.71 1009.30 1009.82 1010.33 1010.84 1011.26 1011.56 1011.89 1012.19 1012.52 1012.84 1013.16 1013.49 1013.70 1013.79 1013.95 1014.18 1014.30 1014.41 1014.54 1014.71
1009.27 1007.77 1006.35 1004.11 1002.21 999.95 997.70 996.73 997.75 998.13 999.11 999.16 998.76 998.91 998.50 998.93 999.51 1000.00 1001.12 1002.24 1002.33 1003.90 1005.05 1005.81 1007.08 1007.46 1007.88 1008.31 1008.85 1009.39 1009.88 1010.34 1010.81 1011.36 1011.73 1012.10 1012.45 1012.75 1013.07 1013.40 1013.64 1013.80 1014.07 1014.27 1014.41 1014.55 1014.65 1014.77 1014.95
1007.93 1007.04 1006.20 1003.32 1001.04 999.98 998.47 998.26 998.47 999.19 999.27 999.34 999.22 998.95 999.33 1001.11 1001.07 1001.33 1001.90 1002.31 1002.71 1004.02 1004.86 1006.47 1007.28 1007.71 1008.19 1008.74 1009.16 1009.51 1009.96 1010.35 1010.83 1011.38 1011.82 1012.18 1012.65 1013.01 1013.24 1013.59 1013.84 1014.11 1014.22 1014.39 1014.52 1014.73 1014.87 1014.99 1015.22
1007.48 1006.27 1004.34 1002.52 1001.26 999.81 999.59 999.63 1000.05 999.78 999.26 999.23 999.58 999.00 999.86 1001.30 1001.78 1001.79 1002.33 1002.56 1003.08 1003.86 1004.59 1006.42 1007.49 1007.80 1008.28 1008.84 1009.50 1009.93 1010.13 1010.48 1010.81 1011.21 1011.83 1012.36 1012.85 1013.18 1013.50 1013.82 1014.06 1014.25 1014.39 1014.55 1014.69 1014.83 1015.03 1015.27 1015.40
1006.08 1005.37 1003.72 1001.80 1000.85 1000.31 1000.73 1000.78 1000.65 1000.36 999.88 999.78 999.95 999.99 1000.34 1001.44 1001.80 1002.03 1002.14 1002.65 1003.03 1003.71 1004.43 1006.18 1007.56 1007.98 1008.28 1008.75 1009.42 1010.02 1010.37 1010.69 1011.03 1011.36 1011.77 1012.33 1012.80 1013.18 1013.54 1013.91 1014.10 1014.30 1014.52 1014.71 1014.91 1015.04 1015.19 1015.41 1015.58
1004.85 1003.90 1002.80 1001.99 1000.81 1000.26 1001.08 1002.16 1001.21 1000.62 1000.17 1000.06 1000.36 1000.49 1000.18 1001.44 1002.19 1002.07 1002.26 1002.37 1002.88 1003.57 1004.40 1005.99 1007.22 1008.06 1008.59 1008.79 1009.26 1009.91 1010.46 1010.74 1011.14 1011.57 1012.00 1012.40 1012.78 1013.20 1013.54 1013.85 1014.13 1014.33 1014.49 1014.67 1014.91 1015.04 1015.18 1015.39 1015.64
1004.56 1003.70 1002.33 1001.87 1001.17 1000.93 1001.45 1001.72 1001.78 1001.35 1000.74 1000.80 1001.47 1000.70 1000.44 1001.83 1002.47 1002.06 1002.11 1002.09 1002.45 1003.32 1004.20 1005.50 1006.56 1007.43 1008.11 1008.81 1009.47 1009.75 1010.36 1010.81 1011.26 1011.56 1012.06 1012.50 1012.97 1013.28 1013.65 1013.93 1014.13 1014.39 1014.61 1014.83 1015.07 1015.22 1015.28 1015.38 1015.45
1004.35 1003.09 1001.56 1001.11 1001.25 1000.79 1000.82 1001.55 1002.19 1002.21 1001.83 1001.68 1001.70 1001.31 1001.25 1001.84 1002.40 1002.26 1001.84 1001.97 1002.11 1002.86 1003.72 1004.80 1006.05 1006.95 1007.35 1007.76 1009.22 1010.00 1010.23 1010.77 1011.27 1011.65 1012.06 1012.50 1012.47 1013.07 1013.51 1013.68 1014.05 1014.39 1014.59 1014.85 1015.07 1015.29 1015.51 1015.49 1015.42
1003.57 1002.55 1001.23 1001.16 1001.13 1001.16 1000.84 1002.04 1002.62 1002.56 1002.14 1001.78 1001.77 1001.54 1001.81 1001.75 1001.99 1001.91 1002.17 1001.70 1001.92 1002.50 1003.39 1004.18 1005.55 1006.45 1007.01 1006.90 1008.11 1009.35 1009.86 1010.35 1010.86 1011.17 1011.73 1011.81 1011.80 1011.97 1012.46 1013.21 1014.13 1014.44 1014.67 1014.85 1015.02 1015.25 1015.35 1015.58 1014.39
1003.41 1002.17 1001.45 1000.96 1002.12 1002.73 1002.69 1002.61 1002.82 1002.64 1002.19 1001.85 1001.50 1001.31 1001.38 1001.49 1001.58 1001.87 1001.90 1001.49 1001.82 1002.46 1003.03 1003.77 1005.05 1006.19 1006.68 1006.56 1007.30 1008.55 1008.91 1009.66 1010.21 1010.48 1010.88 1011.37 1011.48 1011.63 1012.17 1012.62 1013.48 1014.02 1014.52 1014.36 1014.70 1014.91 1014.79 1014.30 1013.73
1002.91 1002.49 1001.89 1001.43 1002.21 1003.20 1003.07 1003.14 1002.62 1002.52 1002.31 1002.39 1002.31 1002.01 1001.98 1001.91 1001.79 1002.02 1001.80 1001.69 1001.46 1002.04 1003.01 1003.62 1004.52 1005.92 1006.62 1006.54 1006.84 1007.76 1008.15 1008.79 1009.38 1009.89 1010.43 1010.79 1011.03 1011.22 1011.61 1011.64 1012.30 1013.03 1013.20 1013.36 1013.52 1013.55 1013.69 1013.42 1013.45
1002.64 1002.25 1002.50 1002.29 1002.42 1002.94 1003.15 1003.07 1003.03 1002.54 1002.36 1002.44 1002.52 1002.35 1002.19 1002.19 1001.97 1001.88 1001.79 1001.94 1001.92 1001.62 1002.52 1003.55 1004.34 1005.54 1006.40 1006.55 1006.55 1007.17 1007.52 1008.29 1008.69 1009.31 1010.07 1010.26 1010.70 1010.93 1011.30 1011.41 1011.57 1012.15 1012.21 1012.79 1012.63 1012.74 1012.95 1013.30 1013.26
1002.33 1002.58 1002.28 1002.66 1002.38 1002.45 1002.68 1002.63 1003.00 1002.42 1002.25 1002.14 1002.11 1001.93 1001.66 1001.57 1001.49 1001.34 1001.39 1001.58 1001.72 1001.99 1002.04 1003.10 1004.04 1004.93 1005.99 1006.52 1006.46 1006.86 1007.12 1007.44 1008.21 1008.49 1009.40 1009.94 1010.34 1010.70 1011.12 1011.19 1011.27 1011.36 1011.53 1011.78 1012.21 1012.39 1012.58 1012.95 1012.52
1002.63 1002.50 1002.41 1002.14 1002.16 1002.14 1002.25 1001.72 1001.61 1001.97 1001.86 1001.82 1002.01 1001.90 1001.50 1001.32 1001.12 1000.93 1000.91 1001.03 1001.34 1001.62 1002.07 1002.44 1003.40 1004.43 1005.41 1006.19 1006.66 1006.68 1006.97 1007.24 1008.05 1007.99 1009.09 1009.53 1009.91 1010.24 1010.94 1010.81 1010.77 1010.80 1011.06 1011.45 1011.92 1012.13 1012.32 1012.41 1012.10
1002.74 1002.45 1001.15 1000.44 1001.11 1001.64 1002.42 1000.66 1000.00 1000.95 1001.31 1001.99 1002.09 1001.86 1001.71 1001.40 1001.16 1000.82 1000.82 1001.29 1001.48 1001.75 1001.61 1002.02 1002.76 1003.68 1004.90 1005.79 1006.44 1006.69 1006.68 1007.06 1007.45 1007.46 1008.25 1008.76 1009.70 1009.67 1010.42 1010.55 1010.39 1010.62 1010.64 1011.27 1011.67 1012.27 1012.06 1012.41 1011.63
1001.82 1000.65 1000.08 999.53 1000.60 1001.03 1001.38 1000.45 1000.07 1000.89 1001.33 1001.64 1001.84 1001.93 1001.69 1001.70 1001.29 1001.00 1001.04 1001.62 1002.06 1002.20 1002.04 1001.78 1002.57 1003.15 1004.09 1005.34 1006.09 1006.14 1006.34 1006.48 1006.50 1006.69 1007.00 1007.79 1008.72 1009.41 1009.95 1009.97 1010.11 1010.13 1010.53 1011.09 1011.02 1011.53 1011.49 1011.62 1011.51
999.87 999.91 999.79 999.62 999.94 1000.43 1000.75 1000.38 1000.22 1000.25 1000.48 1000.61 1000.73 1001.06 1001.24 1001.23 1001.11 1001.30 1000.90 1001.11 1001.49 1002.10 1002.26 1002.05 1002.17 1002.94 1003.52 1004.36 1005.42 1005.73 1005.81 1006.11 1006.29 1006.08 1006.45 1007.08 1007.86 1008.48 1009.30 1009.56 1009.49 1009.72 1010.07 1010.19 1010.34 1010.97 1011.05 1011.12 1011.19
1001.09 1000.86 1000.36 1000.06 1000.47 1000.96 1000.72 1000.39 1000.21 1000.13 1000.14 1000.04 1000.02 1000.03 1000.22 1000.53 1000.58 1000.57 1000.94 1001.36 1001.67 1001.96 1002.16 1002.27 1002.36 1002.40 1003.15 1003.54 1004.21 1004.80 1004.53 1004.88 1005.37 1005.33 1005.68 1006.24 1007.08 1007.82 1008.40 1009.09 1009.84 1009.80 1009.38 1009.29 1009.52 1010.40 1010.64 1010.78 1010.90
1002.16 1001.70 1001.16 1000.97 1001.02 1001.29 1000.90 1000.31 1000.04 999.82 999.48 999.43 999.46 999.62 999.66 999.69 999.93 1000.09 1000.47 1000.77 1001.04 1001.34 1001.82 1002.07 1002.29 1002.32 1002.52 1002.63 1003.30 1003.67 1003.77 1003.69 1003.85 1004.42 1004.82 1005.32 1006.14 1006.81 1007.35 1007.85 1009.39 1009.97 1008.82 1009.10 1008.97 1009.25 1010.11 1010.41 1010.53
1002.21 1001.86 1001.31 1001.13 1001.11 1001.17 1000.95 1000.03 999.25 998.56 998.40 998.47 998.94 999.25 999.34 999.36 999.49 999.70 999.83 1000.24 1000.40 1000.60 1001.30 1001.52 1001.92 1002.24 1002.13 1002.11 1002.31 1003.04 1003.23 1003.18 1003.19 1003.32 1003.90 1004.51 1005.41 1006.32 1006.51 1007.12 1008.06 1008.40 1008.31 1008.42 1008.60 1008.70 1009.45 1009.45 1010.15
1001.71 1001.51 1001.63 1001.91 1001.83 1000.54 1000.03 998.85 998.35 998.05 997.80 998.06 998.30 998.51 998.87 999.28 999.50 999.53 999.41 999.47 1000.12 1000.31 1000.69 1000.89 1001.31 1001.70 1002.10 1001.89 1001.94 1001.95 1002.22 1002.38 1002.18 1002.66 1003.23 1003.60 1004.55 1005.38 1005.79 1006.34 1007.15 1007.07 1007.41 1007.79 1008.41 1008.42 1008.96 1009.33 1009.28
1002.01 1002.04 1002.56 1002.38 1001.80 1001.14 1000.16 998.98 997.55 997.25 997.14 997.31 998.06 999.07 999.67 999.96 999.94 999.90 999.88 999.77 999.66 999.75 1000.28 1000.53 1001.04 1001.43 1001.61 1001.78 1001.40 1001.10 1001.36 1001.65 1002.01 1002.41 1003.11 1003.36 1003.89 1004.56 1005.33 1006.04 1006.23 1006.47 1006.94 1007.42 1007.59 1008.15 1008.14 1008.59 1008.75
1002.80 1002.80 1002.58 1001.98 1001.09 999.91 998.87 997.91 996.86 996.90 997.60 998.51 999.67 1000.46 1001.05 1001.11 1000.90 1000.78 1000.80 1000.60 1000.72 1000.64 1000.60 1000.62 1000.74 1000.67 1000.92 1001.20 1001.37 1001.09 1000.29 1000.71 1001.04 1001.48 1002.09 1002.62 1003.24 1003.53 1003.89 1005.18 1005.58 1005.87 1006.66 1007.00 1007.39 1007.45 1007.71 1007.70 1008.31
1002.42 1002.52 1001.31 1000.33 999.30 998.17 997.58 997.65 997.28 997.95 998.91 1000.25 1001.26 1001.87 1002.12 1002.13 1002.07 1001.88 1001.70 1001.31 1001.52 1001.45 1001.20 1001.39 1001.17 1000.63 1000.45 1000.40 1000.56 1000.48 1000.29 1000.12 1000.37 1000.10 1000.70 1001.13 1001.53 1002.09 1003.15 1003.23 1004.41 1004.67 1005.40 1005.89 1006.64 1007.04 1007.18 1007.78 1008.20
1002.05 1002.69 1002.19 1001.59 1000.88 999.71 999.29 998.59 998.22 998.50 999.60 1001.21 1001.61 1001.92 1002.16 1002.34 1002.74 1002.97 1002.76 1002.68 1002.28 1001.79 1001.73 1001.88 1001.65 1001.01 1000.44 1000.00 999.39 999.40 999.48 999.86 999.93 999.74 999.20 999.61 999.70 1000.30 1001.55 1002.98 1003.57 1002.72 1004.00 1005.16 1005.74 1006.19 1006.78 1007.78 1007.87
1002.60 1002.92 1003.06 1003.13 1002.79 1002.01 1000.79 999.52 998.57 998.50 999.90 1000.94 1001.76 1002.01 1001.84 1002.48 1002.97 1002.99 1002.73 1002.73 1002.55 1002.38 1002.07 1001.70 1000.88 1000.44 1000.05 999.59 998.89 998.49 998.45 998.66 998.50 998.42 998.44 998.34 998.95 998.94 1000.40 1001.80 1001.93 1002.55 1003.32 1003.62 1004.77 1005.60 1006.40 1006.95 1007.51
1003.86 1003.52 1003.66 1003.47 1003.36 1002.02 1000.33 999.70 998.91 999.53 1000.35 1000.97 1001.07 1001.06 1001.40 1001.89 1001.87 1002.14 1002.69 1002.62 1002.66 1002.21 1001.86 1001.24 1000.79 1000.07 999.63 999.18 998.61 997.67 997.48 997.60 997.83 997.75 997.74 998.09 997.95 998.00 998.78 999.59 1000.57 1001.61 1002.36 1003.24 1004.25 1005.01 1005.93 1006.37 1006.56
1003.45 1003.58 1003.84 1004.44 1004.79 1003.97 1002.20 1000.61 999.74 1000.54 1000.93 1001.10 1001.37 1001.37 1001.21 1001.25 1001.11 1001.19 1001.89 1002.43 1002.14 1001.83 1001.24 1000.66 1000.23 999.74 999.35 998.62 997.98 997.43 996.66 996.82 997.30 997.76 997.88 997.62 997.92 997.45 997.72 996.90 998.73 1000.90 1001.89 1002.62 1003.58 1004.39 1004.82 1005.32 1005.75
1003.62 1003.52 1003.75 1003.89 1004.25 1004.08 1003.44 1001.56 1001.36 1000.91 1001.29 1001.19 1000.59 1000.57 1001.03 1001.73 1002.18 1001.75 1001.51 1001.71 1001.85 1001.84 1001.38 1000.67 1000.28 999.87 999.14 998.66 997.37 996.80 996.25 996.05 996.84 997.25 997.23 997.68 997.69 997.55 998.95 995.52 998.62 1000.17 1001.07 1002.09 1003.27 1003.72 1003.88 1004.61 1005.22
Wind_Speed
17 16 10 9 9 9 18 21 11 1 4 1 5 8 9 15 13 7 4 7 15 21 21 19 19 20 19 18 18 17 16 15 15 15 15 14 14 13 12 12 11 12 12 11 11 11 11 11 10
13 14 10 10 13 15 15 20 13 9 6 3 9 8 10 9 13 7 7 3 15 20 18 18 17 18 19 17 17 17 17 16 15 14 14 14 13 12 12 11 11 11 12 11 11 11 11 10 9
15 16 11 14 15 18 14 16 8 5 3 6 5 2 7 9 13 7 9 8 15 17 17 17 14 16 17 17 17 16 17 16 16 16 15 14 12 12 11 11 11 12 11 10 10 10 10 9 8
10 10 11 15 22 23 22 3 8 4 6 3 3 7 5 11 8 8 7 12 16 16 17 19 13 14 16 16 15 16 17 17 17 16 15 14 12 12 11 10 10 9 11 10 10 9 8 8 7
11 9 15 19 23 21 5 2 3 9 5 5 3 3 9 9 8 9 9 11 14 15 16 17 13 14 15 15 13 13 16 16 17 17 15 13 12 11 10 10 10 10 10 10 10 9 7 6 6
13 13 17 19 22 22 8 8 10 10 8 8 4 5 11 12 7 5 9 11 13 14 16 16 15 14 15 15 15 14 14 15 15 15 16 14 13 12 11 10 10 10 9 9 9 8 7 5 4
20 17 21 24 21 18 14 13 15 14 13 7 8 10 10 14 9 1 5 10 11 13 14 16 17 14 14 15 15 14 14 15 14 13 13 13 13 12 11 10 10 10 10 9 9 8 7 6 5
17 17 26 23 19 19 19 15 16 17 10 11 2 7 4 12 8 4 7 8 12 14 14 17 17 17 15 14 14 16 15 14 13 13 12 12 11 11 10 9 9 9 9 8 7 7 7 7 7
21 18 20 26 23 21 17 12 13 18 15 13 12 12 8 5 5 5 6 9 11 12 14 15 17 17 17 17 14 12 15 13 14 14 12 12 10 11 12 11 14 8 8 8 7 6 6 7 8
14 17 24 19 18 18 18 12 17 15 19 20 17 16 13 9 7 4 8 8 11 13 14 15 15 16 16 13 16 14 13 12 12 13 13 10 11 10 11 11 10 9 8 7 7 7 7 8 9
20 20 19 17 3 4 9 13 14 16 21 21 18 16 13 13 8 8 10 12 12 10 11 14 15 13 15 13 12 9 9 9 10 14 12 11 9 8 8 8 8 8 9 7 9 8 8 11 10
18 19 24 12 6 12 15 16 18 16 19 15 18 17 15 17 13 14 13 13 13 14 12 12 15 12 12 11 10 12 10 10 9 12 13 9 8 7 8 7 10 8 9 9 9 7 9 9 6
16 16 12 13 12 13 15 17 18 20 17 15 16 17 18 20 20 17 14 12 12 13 15 12 13 15 11 11 9 10 11 10 10 11 12 10 11 8 8 8 9 9 9 9 7 8 6 7 9
16 19 11 15 17 16 17 17 16 15 14 16 16 16 17 18 19 18 16 14 13 13 14 16 16 13 14 12 10 9 8 10 9 9 10 14 10 8 10 9 9 9 10 9 9 8 7 8 8
5 11 13 15 15 14 12 17 19 20 16 14 14 15 15 16 16 17 16 15 13 12 15 14 14 15 15 15 13 10 11 10 9 9 11 14 11 10 9 10 10 10 9 7 6 6 6 7 8
14 14 16 20 19 13 9 14 9 7 6 10 13 12 12 13 14 15 11 11 9 10 11 13 15 16 15 13 12 9 11 11 11 11 12 16 14 13 13 11 9 8 7 8 9 7 6 8 8
13 14 20 10 12 11 15 12 1 3 8 11 12 13 13 15 16 13 11 10 10 9 12 12 13 16 17 15 13 14 13 11 11 12 12 17 17 16 11 11 10 10 8 8 8 8 8 8 8
9 18 13 7 5 12 14 17 14 12 14 15 13 14 12 14 14 14 14 10 8 7 8 11 11 14 12 13 12 11 12 11 11 10 11 15 13 16 13 12 11 12 11 10 9 8 9 7 8
11 13 12 10 3 10 14 15 14 13 14 15 14 14 14 15 14 12 12 10 11 8 7 9 12 12 13 12 12 12 14 14 13 12 16 16 16 17 13 10 11 11 11 12 12 9 7 8 8
12 13 13 12 10 10 15 17 17 17 18 18 16 15 14 14 14 14 13 11 10 6 6 7 11 11 12 11 11 13 12 12 13 12 14 14 15 16 14 13 11 14 11 12 11 12 8 8 8
14 15 14 13 11 13 16 21 23 20 18 15 11 13 13 14 15 14 14 14 14 12 8 8 9 12 14 15 11 10 9 8 10 13 12 15 16 19 17 16 17 15 13 11 12 13 15 9 9
13 10 8 9 12 13 13 15 17 17 15 12 13 12 11 12 13 15 14 12 14 15 14 10 7 10 13 14 14 17 13 13 12 11 10 11 16 16 16 17 17 12 12 12 10 10 11 7 6
11 10 9 14 16 18 19 14 15 17 15 11 7 10 13 16 16 13 16 16 16 9 11 10 10 9 10 13 17 14 17 14 10 10 13 13 12 16 16 17 15 14 12 13 12 13 12 10 8
10 13 18 20 17 16 21 18 7 5 10 11 12 15 17 17 18 16 18 15 13 12 13 13 12 12 11 11 16 20 18 18 13 14 13 12 12 13 17 17 14 13 13 11 11 10 12 10 10
15 15 13 14 13 13 8 10 10 14 8 8 8 7 11 15 13 13 12 13 14 15 14 14 16 16 14 13 14 18 22 19 19 16 14 15 13 13 16 20 18 15 13 13 12 11 10 11 10
13 7 10 14 15 17 21 13 9 1 9 4 5 6 8 8 11 14 17 16 18 15 14 14 16 15 17 17 16 15 19 15 15 16 13 13 13 13 16 18 16 17 18 15 14 9 9 12 10
4 8 5 12 14 15 15 18 20 12 9 9 6 12 5 5 8 16 14 11 15 14 17 17 16 15 16 18 16 15 16 19 17 19 17 13 14 13 16 19 16 15 15 16 12 9 13 11 12
11 11 9 7 7 11 8 14 12 9 6 7 11 13 9 11 14 10 13 13 12 15 16 15 16 17 16 16 17 15 16 18 18 16 15 17 15 16 22 22 18 16 15 14 13 11 13 13 12
9 12 9 7 8 9 12 7 14 15 12 12 13 16 16 18 19 11 10 17 14 17 17 14 16 16 18 15 15 17 16 15 16 16 16 17 15 15 20 17 18 17 15 12 12 13 13 14 11
12 14 14 10 9 10 11 16 19 4 10 13 17 14 15 17 19 20 14 13 17 14 19 16 16 15 13 19 14 15 16 14 13 16 18 17 12 11 12 12 16 18 17 14 16 15 14 14 13
Wind_Direction
278 258 266 256 243 230 245 233 244 127 204 153 327 259 278 324 354 24 30 91 127 132 149 156 144 143 151 151 151 149 150 149 151 150 149 151 148 147 141 135 135 130 126 125 125 123 118 118 117
291 285 260 266 238 244 228 244 188 228 20 354 253 225 252 254 40 93 150 116 142 131 151 158 147 145 147 152 151 151 152 152 153 152 155 155 152 148 142 140 136 132 133 134 133 128 127 126 126
265 263 267 231 237 248 253 201 197 99 221 257 269 248 340 8 45 7 75 153 142 140 158 143 150 145 145 149 154 154 155 155 155 157 161 157 154 149 144 143 141 141 139 136 132 130 133 134 142
247 227 241 258 239 234 260 74 73 229 194 229 339 247 102 36 347 357 102 166 137 149 167 129 145 143 143 148 154 160 158 159 158 160 161 158 156 148 144 145 140 143 142 143 138 138 141 153 160
230 261 234 227 239 255 241 308 75 261 316 280 337 41 95 63 43 96 131 154 151 156 158 149 144 144 148 152 157 164 162 161 160 158 159 159 154 145 144 143 141 146 148 149 142 145 149 157 172
219 221 241 235 235 236 198 266 255 249 273 271 257 306 84 59 53 127 143 164 165 160 152 154 149 149 152 158 163 164 165 161 160 159 158 157 152 149 148 150 151 153 150 149 151 152 151 158 176
235 223 232 244 243 237 198 234 258 258 249 234 39 279 110 61 7 183 170 166 171 161 162 157 172 161 154 154 157 161 164 157 156 154 156 154 150 150 152 155 158 158 156 153 158 158 160 172 194
228 245 237 233 253 248 229 221 248 259 264 288 313 255 164 55 354 203 190 191 179 167 172 162 177 178 179 167 162 159 159 154 153 151 151 148 146 149 155 157 163 161 157 156 156 164 173 186 199
224 238 236 240 238 247 238 217 255 263 268 277 260 293 320 352 308 292 214 195 188 175 176 172 177 181 190 179 168 163 158 159 154 154 150 150 190 177 165 198 150 162 157 161 165 174 195 211 220
223 232 238 235 237 254 254 212 250 265 245 241 251 248 248 255 233 247 215 238 195 187 184 178 177 185 193 190 168 190 185 188 191 188 180 199 205 182 195 163 149 156 168 176 181 193 208 231 236
220 244 229 236 273 256 260 247 245 250 252 261 267 272 275 274 254 280 280 239 203 210 197 195 167 186 198 205 166 187 191 197 197 200 189 202 194 188 205 161 175 187 188 199 192 197 221 222 248
228 236 256 255 186 248 241 262 267 250 259 270 279 287 285 275 277 268 255 253 244 195 207 196 172 186 201 204 179 185 196 187 196 201 195 190 206 190 195 195 188 193 181 215 191 209 223 231 250
218 248 238 261 244 228 243 243 259 259 264 258 256 261 257 256 258 255 253 258 271 242 189 220 197 181 197 231 188 192 198 182 195 192 190 201 204 187 199 204 188 184 198 194 213 226 192 227 241
208 234 216 238 239 234 234 248 238 249 243 252 250 254 256 252 253 247 242 241 236 245 223 198 205 182 192 211 220 189 194 181 184 185 194 198 198 187 198 205 206 191 207 198 202 207 212 226 238
220 234 227 230 233 242 246 255 236 248 247 254 263 279 268 265 261 253 247 248 241 226 245 198 203 197 190 199 219 196 200 194 196 187 189 189 195 189 211 209 197 202 197 204 207 216 203 242 238
238 227 248 213 210 219 225 263 214 177 200 235 244 256 279 279 270 272 248 259 284 289 247 218 203 199 192 198 207 216 209 199 195 193 193 182 196 204 197 203 201 212 190 190 202 212 219 236 232
204 244 214 161 184 231 199 259 115 131 241 234 260 268 257 259 272 260 263 257 249 251 266 214 211 218 192 198 211 212 209 199 216 195 193 183 190 207 202 205 203 191 204 200 204 210 213 224 246
242 206 245 268 228 201 248 252 253 267 260 263 257 250 253 265 241 260 270 264 255 254 230 240 205 206 213 191 195 215 215 220 207 211 201 183 195 196 202 213 208 190 200 201 201 211 209 226 244
325 294 293 292 291 287 275 278 275 274 268 263 260 255 241 240 249 238 232 255 264 247 235 232 227 202 201 195 203 213 211 202 211 212 199 197 189 195 198 219 213 208 203 205 186 194 218 222 227
262 262 260 260 260 269 278 277 281 276 273 275 273 271 265 253 242 238 237 239 245 245 253 247 233 223 204 211 204 210 222 218 208 206 211 196 184 194 192 175 234 221 213 209 204 183 201 207 234
243 262 269 282 307 290 278 264 253 248 247 254 247 259 272 272 268 266 263 266 268 257 266 250 233 241 221 219 205 208 235 237 209 203 208 196 199 206 205 194 213 210 206 207 198 188 196 191 205
256 243 274 279 270 273 310 297 288 275 260 250 260 252 265 291 297 295 285 245 254 270 267 253 245 224 240 224 232 209 209 211 218 209 210 193 193 203 210 210 207 217 204 220 203 201 194 208 214
275 334 286 282 278 277 268 256 264 253 244 257 29 359 342 327 318 320 309 306 332 281 281 311 311 282 247 251 222 217 212 213 207 208 215 216 195 202 210 210 209 206 214 208 218 197 195 181 201
284 291 271 264 259 255 257 251 284 333 357 351 0 344 333 309 305 328 309 318 306 300 301 302 291 266 248 249 252 230 225 218 202 198 203 199 206 203 200 220 208 202 208 218 207 210 193 198 196
234 253 273 262 240 255 300 327 323 321 27 29 338 339 335 349 334 312 311 317 328 315 317 320 304 296 284 254 243 249 232 234 222 207 201 195 194 201 204 197 199 194 197 203 202 199 191 198 205
298 260 279 297 294 302 324 299 290 357 140 153 257 280 294 328 324 325 321 333 321 314 312 301 299 300 295 277 254 234 240 227 232 227 217 206 210 196 193 197 206 185 186 200 196 186 194 193 200
353 271 328 295 286 274 262 252 243 242 120 193 8 298 308 322 310 312 297 291 303 325 309 298 301 308 297 287 269 251 234 231 227 224 218 218 208 191 180 188 192 189 197 187 182 192 203 198 205
257 305 276 239 281 289 306 324 298 31 346 259 274 317 307 290 284 290 301 301 292 297 293 302 309 307 304 289 276 257 236 229 228 237 224 223 217 217 179 177 183 188 196 196 190 197 212 212 211
178 238 214 233 248 273 296 282 4 339 335 328 318 311 304 305 304 296 302 293 309 301 296 304 309 306 311 298 273 261 255 225 231 227 224 215 229 209 156 204 163 187 197 193 185 204 207 208 210
292 302 300 272 244 241 268 273 272 310 276 269 277 313 327 338 329 321 305 301 287 299 304 311 304 307 309 308 286 262 257 226 230 226 225 217 212 239 221 137 178 189 192 189 190 206 204 201 211